GW1523 Weather Reports


time (UTC)temp
F
wind
direction
speed
knots
gust
knots
rain 1hr
in
rain 24hr
in
rain mn
in
humidity
%
barometer
mb
20260507113857 60 279 0.9 5.2 0.00 0.00 0.00 67 1016.3
20260507113358 59 262 1.7 3.5 0.00 0.00 0.00 65 1016.2
20260507112857 59 260 2.6 2.6 0.00 0.00 0.00 62 1016.1
20260507112357 59 321 1.7 3.5 0.00 0.00 0.00 64 1016.2
20260507112121 58 189 2.6 3.5 0.00 0.00 0.00 68 1016.2
20260507111357 58 186 0.0 2.6 0.00 0.00 0.00 69 1016.2
20260507110859 58 231 0.0 2.6 0.00 0.00 0.00 68 1016.3
20260507110615 58 188 0.0 3.5 0.00 0.00 0.00 66 1016.4
20260507110135 58 258 2.6 6.1 0.00 0.00 0.00 67 1016.3
20260507105356 59 263 2.6 6.1 0.00 0.00 0.00 67 1016.4
20260507104856 59 200 1.7 5.2 0.00 0.00 0.00 71 1016.3
20260507104359 58 161 1.7 6.1 0.00 0.00 0.00 70 1016.6
20260507104124 58 223 3.5 6.1 0.00 0.00 0.00 71 1016.4
20260507103357 57 198 2.6 6.1 0.00 0.00 0.00 73 1016.3
20260507102857 56 212 1.7 6.1 0.00 0.00 0.00 72 1016.4
20260507102355 56 102 2.6 6.1 0.00 0.00 0.00 69 1016.4
20260507101902 56 79 0.9 3.5 0.00 0.00 0.00 70 1016.4
20260507101358 57 44 0.9 7.8 0.00 0.00 0.00 69 1016.4
20260507100857 57 210 0.0 7.8 0.00 0.00 0.00 67 1016.4
20260507100356 58 250 4.3 6.1 0.00 0.00 0.00 72 1016.6
20260507100127 58 174 1.7 7.0 0.00 0.00 0.00 70 1016.3
20260507095356 57 242 2.6 7.0 0.00 0.00 0.00 72 1016.4
20260507094907 56 168 0.0 3.5 0.00 0.00 0.00 68 1016.2
20260507094623 56 202 1.7 5.2 0.00 0.00 0.00 73 1016.2
20260507093856 56 231 3.5 5.2 0.00 0.00 0.00 72 1016.4
20260507093354 56 217 1.7 3.5 0.00 0.00 0.00 74 1016.5
20260507092854 56 188 1.7 3.5 0.00 0.00 0.00 79 1016.3
20260507092355 55 239 1.7 3.5 0.00 0.00 0.00 80 1016.4
20260507091854 55 200 1.7 3.5 0.00 0.00 0.00 81 1016.0
20260507091354 54 261 0.0 1.7 0.00 0.00 0.00 81 1016.2
20260507090854 54 242 0.9 1.7 0.00 0.00 0.00 83 1016.3
20260507090352 54 256 0.9 1.7 0.00 0.00 0.00 83 1016.1
20260507085855 53 285 0.0 1.7 0.00 0.00 0.00 89 1016.3
20260507085355 53 26 1.7 1.7 0.00 0.00 0.00 90 1016.1
20260507084857 53 43 0.9 2.6 0.00 0.00 0.00 91 1016.3
20260507084355 53 55 0.9 2.6 0.00 0.00 0.00 92 1015.9
20260507083854 52 93 0.9 2.6 0.00 0.00 0.00 93 1016.1
20260507083354 52 63 0.9 2.6 0.00 0.00 0.00 93 1016.1
20260507082854 52 59 0.0 2.6 0.00 0.00 0.00 93 1016.2
20260507082630 52 62 0.9 3.5 0.00 0.00 0.00 93 1016.2
20260507081853 51 40 2.6 3.5 0.00 0.00 0.00 94 1016.0
20260507081628 51 42 1.7 2.6 0.00 0.00 0.00 95 1016.0
20260507080856 51 40 1.7 3.5 0.00 0.00 0.00 95 1015.9
20260507080358 51 90 2.6 2.6 0.00 0.00 0.00 96 1016.1
20260507075859 51 23 1.7 2.6 0.00 0.00 0.00 96 1015.9
20260507075401 50 32 1.7 1.7 0.00 0.00 0.00 96 1016.0
20260507074859 50 25 1.7 1.7 0.00 0.00 0.00 97 1016.0
20260507074358 50 56 0.9 2.6 0.00 0.00 0.00 97 1016.0
20260507073858 50 86 0.9 2.6 0.00 0.00 0.00 97 1015.9
20260507073627 49 71 1.7 2.6 0.00 0.00 0.00 97 1016.0
20260507072857 49 68 1.7 2.6 0.00 0.00 0.00 97 1015.9
20260507072357 49 22 1.7 3.5 0.00 0.00 0.00 97 1015.8
20260507071857 49 12 1.7 3.5 0.00 0.00 0.00 97 1015.9
20260507071357 49 26 2.6 3.5 0.00 0.00 0.00 98 1015.7
20260507070905 48 13 1.7 2.6 0.00 0.00 0.00 98 1015.7
20260507065858 48 25 1.7 3.5 0.00 0.00 0.00 97 1015.8
20260507065355 48 34 1.7 2.6 0.00 0.00 0.00 97 1015.7
20260507064857 48 27 0.9 1.7 0.00 0.00 0.00 97 1015.5
20260507064400 47 60 0.0 0.0 0.00 0.00 0.00 97 1015.6
20260507063856 48 100 0.0 0.0 0.00 0.00 0.00 97 1015.6
20260507063357 48 102 0.0 0.0 0.00 0.00 0.00 98 1015.6
20260507062856 48 101 0.0 0.0 0.00 0.00 0.00 98 1015.5
20260507062354 47 156 0.0 0.0 0.00 0.00 0.00 98 1015.5
20260507061854 47 156 0.0 0.0 0.00 0.00 0.00 98 1015.5
20260507061355 47 156 0.0 0.0 0.00 0.00 0.00 98 1015.4
20260507060354 47 156 0.0 0.0 0.00 0.00 0.00 98 1015.4
20260507055853 46 156 0.0 0.0 0.00 0.00 0.00 98 1015.3
20260507055619 46 156 0.0 0.9 0.00 0.00 0.00 98 1015.2
20260507054854 46 156 0.9 0.9 0.00 0.00 0.00 98 1015.1
20260507054352 46 156 0.0 0.0 0.00 0.00 0.00 98 1015.2
20260507053853 46 154 0.0 0.0 0.00 0.00 0.00 98 1015.1
20260507053352 45 96 0.0 0.9 0.00 0.00 0.00 97 1015.1
20260507052854 45 44 0.0 2.6 0.00 0.00 0.00 97 1015.1
20260507052613 45 41 0.9 3.5 0.00 0.00 0.00 97 1015.0
20260507051854 45 89 0.0 5.2 0.00 0.00 0.00 97 1015.0
20260507051353 45 32 1.7 6.1 0.00 0.00 0.00 97 1015.2
20260507050859 46 101 0.9 6.1 0.00 0.00 0.00 97 1014.7
20260507050352 46 36 0.9 6.1 0.00 0.00 0.00 97 1014.7
20260507045853 46 17 3.5 6.1 0.00 0.00 0.00 97 1014.7
20260507045350 46 161 0.0 0.0 0.00 0.00 0.00 97 1014.6
20260507044853 46 161 0.0 0.0 0.00 0.00 0.00 97 1014.8
20260507044345 46 161 0.0 0.0 0.00 0.00 0.00 97 1014.7
20260507043841 46 161 0.0 0.0 0.00 0.00 0.00 97 1014.4
20260507043341 46 161 0.0 0.0 0.00 0.00 0.00 97 1014.5
20260507042841 46 161 0.0 0.0 0.00 0.00 0.00 97 1014.5
20260507042608 46 161 0.0 0.0 0.00 0.00 0.00 98 1014.6
20260507041841 46 161 0.0 0.0 0.00 0.00 0.00 98 1014.5
20260507040853 45 161 0.0 1.7 0.00 0.00 0.00 97 1014.6
20260507040342 45 162 0.9 1.7 0.00 0.00 0.00 97 1014.5
20260507035341 45 160 0.0 0.0 0.00 0.00 0.00 97 1014.2
20260507034841 45 160 0.0 0.0 0.00 0.00 0.00 97 1014.1
20260507034338 45 159 0.0 0.9 0.00 0.00 0.00 97 1014.4
20260507033843 45 160 0.0 0.9 0.00 0.00 0.00 98 1014.1
20260507033342 45 160 0.9 0.9 0.00 0.00 0.00 98 1014.2
20260507032841 44 139 0.9 1.7 0.00 0.00 0.00 98 1014.0
20260507032341 44 137 0.9 1.7 0.00 0.00 0.00 98 1014.2
20260507031848 44 145 0.9 0.9 0.00 0.00 0.00 97 1014.2
20260507031342 44 145 0.0 1.7 0.00 0.00 0.00 97 1013.9
20260507030841 44 178 0.9 1.7 0.00 0.00 0.00 97 1014.0
20260507030341 44 181 1.7 1.7 0.00 0.00 0.00 97 1013.9
20260507025842 44 177 0.9 1.7 0.00 0.00 0.00 97 1014.1
20260507025341 44 166 0.9 1.7 0.00 0.00 0.00 97 1013.8
20260507024841 44 181 0.9 2.6 0.00 0.00 0.00 97 1014.0
20260507024104 44 212 2.6 2.6 0.00 0.00 0.00 97 1013.9
20260507023341 44 211 2.6 2.6 0.00 0.00 0.00 97 1013.9
20260507022853 44 209 1.7 1.7 0.00 0.00 0.00 97 1013.9
20260507022605 44 209 0.9 1.7 0.00 0.00 0.00 96 1013.9
20260507021840 44 208 0.9 1.7 0.00 0.00 0.00 97 1013.8
20260507021338 44 208 1.7 2.6 0.00 0.00 0.00 97 1014.0
20260507021105 44 207 1.7 2.6 0.00 0.00 0.00 97 1013.8
20260507020339 44 185 0.9 1.7 0.00 0.00 0.00 97 1013.8
20260507015840 44 182 0.9 2.6 0.00 0.00 0.00 97 1013.9
20260507015603 44 204 1.7 3.5 0.00 0.00 0.00 97 1013.8
20260507014842 44 231 2.6 3.5 0.00 0.00 0.00 97 1013.6
20260507014605 44 237 2.6 3.5 0.00 0.00 0.00 97 1013.8
20260507013341 44 237 1.7 3.5 0.00 0.00 0.00 97 1013.6
20260507012840 44 240 3.5 3.5 0.00 0.00 0.00 97 1013.5
20260507012341 44 242 2.6 3.5 0.00 0.00 0.00 97 1013.6
20260507011845 44 242 2.6 2.6 0.00 0.00 0.00 97 1013.7
20260507011339 44 242 1.7 2.6 0.00 0.00 0.00 96 1013.6
20260507011107 44 242 1.7 2.6 0.00 0.00 0.00 97 1013.4
20260507010340 44 240 1.7 2.6 0.00 0.00 0.00 97 1013.4
20260507005840 44 241 1.7 2.6 0.00 0.00 0.00 96 1013.5
20260507005344 45 242 1.7 2.6 0.00 0.00 0.00 97 1013.4
20260507004840 45 241 1.7 2.6 0.00 0.00 0.00 97 1013.6
20260507003842 45 251 2.6 3.5 0.00 0.00 0.00 97 1013.4
20260507003600 45 252 2.6 3.5 0.00 0.00 0.00 97 1013.5
20260507002836 45 252 2.6 3.5 0.00 0.00 0.00 97 1013.6
20260507002334 45 248 2.6 3.5 0.00 0.00 0.00 97 1013.6
20260507001837 45 246 1.7 3.5 0.00 0.00 0.00 97 1013.7
20260507001337 45 246 3.5 5.2 0.00 0.00 0.00 97 1013.7
20260507000836 45 247 3.5 5.2 0.00 0.00 0.00 97 1013.7
20260507000337 45 251 3.5 5.2 0.00 0.00 0.00 97 1013.7
20260506235842 45 250 3.5 5.2 0.00 0.00 0.00 97 1013.4
20260506235338 45 251 3.5 3.5 0.00 0.00 0.00 97 1013.5
20260506234849 45 249 2.6 3.5 0.00 0.00 0.00 96 1013.5
20260506234336 45 248 1.7 3.5 0.00 0.00 0.00 96 1013.5
20260506233851 45 249 2.6 3.5 0.00 0.00 0.00 96 1013.4
20260506233336 45 246 2.6 2.6 0.00 0.00 0.00 96 1013.3
20260506232836 45 247 0.9 2.6 0.00 0.00 0.00 96 1013.3
20260506232336 46 249 1.7 2.6 0.00 0.00 0.00 96 1013.3
20260506231835 46 258 1.7 2.6 0.00 0.00 0.00 97 1013.3
20260506231336 46 255 2.6 2.6 0.00 0.00 0.00 96 1013.3
20260506230836 46 246 1.7 3.5 0.00 0.00 0.00 96 1013.3
20260506230337 46 253 3.5 3.5 0.00 0.00 0.00 96 1013.1
20260506225835 46 261 2.6 3.5 0.00 0.00 0.00 97 1013.3
20260506225602 46 260 2.6 2.6 0.00 0.00 0.00 96 1013.3
20260506225104 46 259 1.7 2.6 0.00 0.00 0.00 96 1013.1
20260506224340 46 260 1.7 3.5 0.00 0.00 0.00 96 1013.1
20260506224055 46 261 2.6 3.5 0.00 0.00 0.00 96 1013.1
20260506223339 46 260 2.6 3.5 0.00 0.00 0.00 95 1013.1
20260506222839 46 248 1.7 2.6 0.00 0.00 0.00 93 1013.0
20260506222340 46 235 1.7 1.7 0.00 0.00 0.00 93 1013.1
20260506222100 46 235 1.7 1.7 0.00 0.00 0.00 93 1013.0
20260506221607 46 231 1.7 1.7 0.00 0.00 0.00 93 1012.9
20260506220840 46 230 0.9 1.7 0.00 0.00 0.00 93 1013.0
20260506220339 46 231 1.7 1.7 0.00 0.00 0.00 93 1012.9
20260506215841 46 230 1.7 1.7 0.00 0.00 0.00 93 1013.0
20260506215339 46 229 0.9 1.7 0.00 0.00 0.00 93 1013.1
20260506214840 46 207 0.9 1.7 0.00 0.00 0.00 93 1012.7
20260506214341 47 239 0.9 1.7 0.00 0.00 0.00 92 1012.8
20260506213842 47 239 0.9 1.7 0.00 0.00 0.00 92 1012.9
20260506213341 47 227 0.9 1.7 0.00 0.00 0.00 92 1012.9
20260506212837 47 200 0.9 1.7 0.00 0.00 0.00 92 1013.0
20260506212340 48 259 0.9 1.7 0.00 0.00 0.00 93 1012.9
20260506211339 48 259 0.0 1.7 0.00 0.00 0.00 92 1012.8
20260506211113 48 259 0.0 2.6 0.00 0.00 0.00 92 1012.7
20260506205840 49 256 1.7 2.6 0.00 0.00 0.00 93 1012.8
20260506205622 49 262 1.7 2.6 0.00 0.00 0.00 93 1012.6
20260506204840 49 261 0.9 2.6 0.00 0.00 0.00 92 1012.6
20260506204341 49 265 1.7 2.6 0.00 0.00 0.00 92 1012.4
20260506203847 49 259 1.7 1.7 0.00 0.00 0.00 91 1012.5
20260506203340 49 261 0.0 3.5 0.00 0.00 0.00 91 1012.2
20260506202841 50 279 0.9 5.2 0.00 0.00 0.00 90 1012.3
20260506201840 50 295 2.6 7.0 0.00 0.00 0.00 90 1012.4
20260506201342 50 304 3.5 7.0 0.00 0.00 0.00 90 1012.1
20260506201106 50 283 0.9 6.1 0.00 0.00 0.00 90 1012.2
20260506200341 51 255 1.7 6.1 0.00 0.00 0.00 89 1012.2
20260506195840 51 284 0.9 7.0 0.00 0.00 0.00 89 1012.3
20260506195342 51 317 3.5 7.0 0.00 0.00 0.00 89 1012.0
20260506195101 51 284 3.5 6.1 0.00 0.00 0.00 89 1012.1
20260506194344 51 319 3.5 3.5 0.00 0.00 0.00 89 1012.1
20260506193841 51 299 0.9 7.0 0.00 0.00 0.00 88 1011.9
20260506193340 51 272 1.7 7.8 0.00 0.00 0.00 88 1011.7
20260506193107 51 322 6.1 7.8 0.00 0.00 0.00 87 1011.8
20260506192342 51 295 3.5 7.0 0.00 0.00 0.00 87 1011.8
20260506191842 52 313 4.3 7.8 0.00 0.00 0.00 87 1011.9
20260506191340 52 329 3.5 9.6 0.00 0.00 0.00 86 1011.7
20260506190842 52 286 1.7 9.6 0.00 0.00 0.00 85 1011.7
20260506190601 52 301 7.0 12.2 0.00 0.00 0.00 84 1011.6
20260506185848 52 298 7.8 12.2 0.00 0.00 0.00 84 1011.5
20260506185601 52 310 6.1 13.0 0.00 0.00 0.00 84 1011.5
20260506184840 52 301 7.0 13.0 0.00 0.00 0.00 83 1011.4
20260506184340 53 290 2.6 13.9 0.00 0.00 0.00 83 1011.4
20260506183839 53 333 7.8 13.9 0.00 0.00 0.00 83 1011.5
20260506183340 53 321 5.2 14.8 0.00 0.00 0.00 82 1011.4
20260506182840 53 314 10.4 14.8 0.00 0.00 0.00 82 1011.3
20260506182340 53 322 5.2 13.9 0.00 0.00 0.00 81 1011.2
20260506181841 53 287 6.1 13.0 0.00 0.00 0.00 82 1011.1
20260506181344 53 305 8.7 13.0 0.00 0.00 0.00 81 1011.0
20260506180837 53 297 6.1 13.9 0.00 0.00 0.00 81 1010.9
20260506180338 53 321 4.3 13.9 0.00 0.00 0.00 82 1011.0
20260506175835 54 303 6.1 13.0 0.00 0.00 0.00 80 1011.0
20260506175338 54 224 4.3 15.6 0.00 0.00 0.00 81 1010.9
20260506174838 54 338 7.0 15.6 0.00 0.00 0.00 80 1010.9
20260506174337 54 318 7.0 13.9 0.00 0.00 0.00 80 1011.0
20260506173837 54 326 9.6 13.9 0.00 0.00 0.00 79 1010.7
20260506173337 55 309 6.1 14.8 0.00 0.00 0.00 80 1010.4
20260506172837 55 349 6.1 15.6 0.00 0.00 0.00 78 1010.6
20260506172337 55 320 7.8 19.1 0.00 0.00 0.00 77 1010.5
20260506171841 55 287 10.4 14.8 0.00 0.00 0.00 77 1010.6
20260506171336 55 318 7.8 14.8 0.00 0.00 0.00 76 1010.5
20260506170840 55 307 11.3 14.8 0.00 0.00 0.00 76 1010.6
20260506170337 55 317 9.6 14.8 0.00 0.00 0.00 73 1010.6
20260506165837 55 294 9.6 15.6 0.00 0.00 0.00 74 1010.5
20260506165336 55 325 7.0 16.5 0.00 0.00 0.00 76 1010.4
20260506164835 55 312 8.7 16.5 0.00 0.00 0.00 76 1010.4
20260506164335 55 310 11.3 14.8 0.00 0.00 0.00 76 1010.2
20260506163835 56 356 9.6 13.0 0.00 0.00 0.00 77 1010.2
20260506163337 56 305 7.0 13.0 0.00 0.00 0.00 75 1010.3
20260506162836 56 308 5.2 15.6 0.00 0.00 0.00 76 1010.1
20260506162337 56 317 10.4 15.6 0.00 0.00 0.00 74 1010.1
20260506161836 56 325 7.8 14.8 0.00 0.00 0.00 74 1010.1
20260506161555 56 317 6.1 16.5 0.00 0.00 0.00 78 1010.0
20260506160837 56 333 7.8 16.5 0.00 0.00 0.00 74 1010.1
20260506160336 56 303 7.8 16.5 0.00 0.00 0.00 77 1010.2
20260506160116 56 311 11.3 16.5 0.00 0.00 0.00 77 1010.1
20260506155340 56 302 6.1 15.6 0.00 0.00 0.00 77 1010.0
20260506154838 56 329 5.2 18.2 0.00 0.00 0.00 78 1010.1
20260506154336 55 322 7.8 18.2 0.00 0.00 0.00 79 1009.9
20260506153840 55 332 12.2 14.8 0.00 0.00 0.00 77 1010.1
20260506153335 55 321 3.5 14.8 0.00 0.00 0.00 79 1010.2
20260506152836 55 322 7.8 14.8 0.00 0.00 0.00 79 1010.3
20260506152336 55 318 7.8 15.6 0.00 0.00 0.00 77 1010.3
20260506151835 56 296 7.8 15.6 0.00 0.00 0.00 77 1010.1
20260506151337 56 307 7.0 14.8 0.00 0.00 0.00 79 1010.2
20260506150835 56 325 6.1 15.6 0.00 0.00 0.00 79 1010.1
20260506150336 56 317 11.3 15.6 0.00 0.00 0.00 77 1010.1
20260506145839 57 322 6.1 14.8 0.00 0.00 0.00 79 1009.9
20260506145604 57 317 5.2 14.8 0.00 0.00 0.00 77 1009.9
20260506144836 57 324 7.8 12.2 0.00 0.00 0.00 76 1010.0
20260506144338 57 327 7.8 12.2 0.00 0.00 0.00 78 1010.0
20260506144103 56 324 4.3 12.2 0.00 0.00 0.00 79 1010.0
20260506143337 56 318 6.1 12.2 0.00 0.00 0.00 78 1009.9
20260506142835 56 318 9.6 13.9 0.00 0.00 0.00 79 1010.1
20260506142602 56 333 7.0 13.9 0.00 0.00 0.00 78 1010.0
20260506141834 56 325 9.6 13.9 0.00 0.00 0.00 76 1010.0
20260506141338 56 348 7.8 15.6 0.00 0.00 0.00 78 1010.0
20260506141107 56 308 7.8 15.6 0.00 0.00 0.00 77 1010.1
20260506140337 56 304 6.1 12.2 0.00 0.00 0.00 79 1010.0
20260506135836 56 311 7.0 12.2 0.00 0.00 0.00 78 1009.9
20260506135337 56 333 6.1 12.2 0.00 0.00 0.00 79 1010.2
20260506134834 56 340 7.8 11.3 0.00 0.00 0.00 79 1010.0
20260506134336 56 298 4.3 12.2 0.00 0.00 0.00 80 1010.2
20260506133836 55 317 9.6 12.2 0.00 0.00 0.00 80 1010.1
20260506133335 55 336 3.5 12.2 0.00 0.00 0.00 82 1010.1
20260506132836 55 336 7.0 12.2 0.00 0.00 0.00 80 1010.3
20260506132333 55 302 6.1 13.0 0.00 0.00 0.00 82 1010.4
20260506132104 54 315 6.1 12.2 0.00 0.00 0.00 83 1010.1
20260506131336 54 336 4.3 13.0 0.00 0.00 0.00 82 1010.2
20260506130836 54 316 4.3 13.0 0.00 0.00 0.00 83 1010.1
20260506130335 54 339 10.4 13.0 0.00 0.00 0.00 84 1010.0
20260506125336 55 314 6.1 12.2 0.00 0.00 0.00 83 1010.0
20260506124837 55 300 5.2 15.6 0.00 0.00 0.00 84 1010.0
20260506124335 55 298 9.6 15.6 0.00 0.00 0.00 82 1009.9
20260506123835 55 303 3.5 9.6 0.00 0.00 0.00 81 1009.7
20260506123335 56 321 4.3 12.2 0.00 0.00 0.00 82 1009.9
20260506122837 56 315 3.5 12.2 0.00 0.00 0.00 84 1010.0
20260506122336 55 309 2.6 13.9 0.00 0.00 0.00 83 1009.8
20260506121836 56 293 7.0 13.9 0.00 0.00 0.00 84 1009.9
20260506121338 55 327 9.6 13.9 0.00 0.00 0.00 80 1009.9
20260506120836 55 352 5.2 12.2 0.00 0.00 0.00 82 1009.7
20260506120336 55 310 6.1 11.3 0.00 0.00 0.00 83 1009.7
20260506115836 54 319 7.0 11.3 0.00 0.00 0.00 82 1009.9
20260506115605 54 311 3.5 9.6 0.00 0.00 0.00 85 1009.9
20260506114835 54 322 5.2 11.3 0.00 0.00 0.00 83 1010.0